QPF
0.01 0.03 0.05 0.09 0.13 0.12 0.10 0.10 0.11 0.12 0.12 0.10 0.06 0.04 0.03 0.02 0.02 0.03 0.03 0.05 0.05 0.05 0.05 0.04 0.04 0.03 0.03 0.03 0.03 0.03 0.03 0.03 0.02 0.01 0.01 0.00 0.00 0.00 0.00 0.00 0.00 0.00 0.00
0.01 0.02 0.04 0.07 0.09 0.09 0.09 0.11 0.12 0.12 0.12 0.11 0.07 0.06 0.05 0.06 0.07 0.08 0.10 0.10 0.10 0.09 0.07 0.06 0.04 0.03 0.02 0.02 0.01 0.01 0.01 0.00 0.00 0.00 0.00 0.00 0.00 0.00 0.00 0.00 0.00 0.00 0.00
0.01 0.01 0.02 0.02 0.03 0.04 0.04 0.05 0.05 0.06 0.07 0.07 0.08 0.08 0.07 0.07 0.09 0.10 0.09 0.09 0.09 0.09 0.08 0.05 0.03 0.01 0.01 0.01 0.01 0.00 0.00 0.00 0.00 0.00 0.01 0.00 0.00 0.00 0.00 0.00 0.00 0.00 0.00
0.00 0.00 0.00 0.00 0.00 0.00 0.01 0.01 0.01 0.01 0.02 0.03 0.04 0.05 0.05 0.04 0.04 0.04 0.04 0.04 0.04 0.03 0.03 0.02 0.01 0.01 0.00 0.00 0.00 0.00 0.00 0.00 0.00 0.00 0.00 0.00 0.00 0.01 0.00 0.00 0.00 0.00 0.00
0.00 0.00 0.00 0.00 0.00 0.00 0.00 0.00 0.00 0.00 0.00 0.01 0.01 0.02 0.02 0.01 0.01 0.01 0.01 0.01 0.01 0.00 0.00 0.00 0.00 0.00 0.00 0.00 0.00 0.00 0.00 0.00 0.00 0.00 0.00 0.00 0.00 0.01 0.01 0.01 0.00 0.00 0.00
0.00 0.00 0.00 0.00 0.00 0.00 0.00 0.00 0.00 0.00 0.00 0.00 0.00 0.00 0.00 0.00 0.00 0.00 0.00 0.00 0.00 0.00 0.00 0.00 0.00 0.00 0.00 0.00 0.00 0.00 0.00 0.00 0.00 0.00 0.01 0.01 0.01 0.01 0.02 0.02 0.01 0.01 0.00
0.00 0.00 0.00 0.00 0.00 0.00 0.00 0.00 0.00 0.00 0.00 0.00 0.00 0.00 0.00 0.00 0.00 0.00 0.00 0.00 0.00 0.00 0.00 0.00 0.00 0.00 0.00 0.00 0.00 0.00 0.00 0.00 0.00 0.00 0.00 0.01 0.01 0.01 0.02 0.03 0.02 0.02 0.01
0.00 0.00 0.00 0.00 0.00 0.00 0.00 0.00 0.00 0.00 0.00 0.00 0.00 0.00 0.00 0.00 0.00 0.00 0.00 0.00 0.00 0.00 0.00 0.00 0.00 0.00 0.00 0.00 0.00 0.00 0.00 0.00 0.01 0.00 0.01 0.01 0.00 0.01 0.01 0.02 0.04 0.04 0.02
0.00 0.00 0.00 0.00 0.00 0.00 0.00 0.00 0.00 0.00 0.00 0.00 0.00 0.00 0.00 0.00 0.00 0.00 0.00 0.00 0.00 0.00 0.00 0.00 0.00 0.00 0.00 0.00 0.01 0.01 0.01 0.01 0.01 0.01 0.01 0.00 0.00 0.01 0.01 0.02 0.04 0.06 0.06
0.00 0.00 0.00 0.00 0.00 0.00 0.00 0.00 0.00 0.00 0.00 0.00 0.00 0.00 0.00 0.00 0.00 0.00 0.00 0.00 0.00 0.00 0.00 0.00 0.00 0.00 0.00 0.00 0.01 0.01 0.01 0.01 0.01 0.01 0.01 0.01 0.01 0.01 0.01 0.01 0.02 0.04 0.07
0.00 0.00 0.00 0.00 0.00 0.00 0.00 0.00 0.00 0.00 0.00 0.00 0.00 0.00 0.00 0.00 0.00 0.00 0.00 0.00 0.00 0.00 0.00 0.00 0.00 0.00 0.00 0.00 0.00 0.00 0.00 0.00 0.00 0.00 0.00 0.00 0.01 0.01 0.01 0.02 0.03 0.03 0.05
0.00 0.00 0.00 0.00 0.00 0.00 0.00 0.00 0.00 0.00 0.00 0.00 0.00 0.00 0.00 0.00 0.00 0.00 0.00 0.00 0.00 0.00 0.00 0.00 0.00 0.00 0.00 0.00 0.00 0.00 0.00 0.00 0.00 0.00 0.00 0.00 0.01 0.01 0.02 0.02 0.03 0.03 0.03
0.00 0.00 0.00 0.00 0.00 0.00 0.00 0.00 0.00 0.00 0.00 0.00 0.00 0.00 0.00 0.00 0.00 0.00 0.00 0.00 0.00 0.00 0.00 0.00 0.00 0.00 0.00 0.00 0.00 0.00 0.00 0.00 0.00 0.00 0.00 0.00 0.01 0.01 0.02 0.02 0.02 0.02 0.02
0.01 0.01 0.00 0.00 0.00 0.00 0.00 0.00 0.00 0.00 0.00 0.00 0.00 0.00 0.00 0.00 0.00 0.00 0.00 0.00 0.00 0.00 0.00 0.00 0.00 0.00 0.00 0.00 0.00 0.00 0.00 0.00 0.00 0.00 0.00 0.01 0.01 0.02 0.02 0.01 0.01 0.01 0.02
0.01 0.00 0.00 0.00 0.00 0.00 0.00 0.00 0.00 0.00 0.00 0.00 0.00 0.00 0.00 0.00 0.00 0.00 0.00 0.00 0.00 0.00 0.00 0.00 0.00 0.00 0.00 0.00 0.00 0.00 0.00 0.00 0.00 0.00 0.01 0.01 0.02 0.03 0.02 0.01 0.01 0.02 0.04
0.01 0.01 0.00 0.00 0.00 0.00 0.00 0.00 0.00 0.00 0.00 0.00 0.00 0.00 0.00 0.00 0.00 0.00 0.00 0.00 0.00 0.00 0.00 0.00 0.00 0.00 0.00 0.00 0.00 0.00 0.00 0.00 0.00 0.00 0.00 0.00 0.01 0.00 0.00 0.01 0.01 0.04 0.07
0.02 0.01 0.00 0.00 0.00 0.00 0.00 0.00 0.00 0.00 0.00 0.00 0.00 0.00 0.00 0.00 0.00 0.00 0.00 0.00 0.00 0.00 0.00 0.00 0.00 0.00 0.00 0.00 0.00 0.00 0.00 0.00 0.00 0.00 0.00 0.01 0.00 0.00 0.00 0.00 0.01 0.04 0.08
0.01 0.00 0.00 0.00 0.00 0.00 0.00 0.00 0.00 0.00 0.00 0.00 0.00 0.00 0.00 0.00 0.00 0.00 0.00 0.00 0.00 0.00 0.00 0.00 0.00 0.00 0.00 0.00 0.00 0.00 0.00 0.00 0.00 0.00 0.00 0.00 0.00 0.00 0.00 0.01 0.02 0.05 0.07
0.01 0.00 0.00 0.00 0.00 0.00 0.00 0.00 0.00 0.00 0.00 0.00 0.00 0.00 0.00 0.00 0.00 0.00 0.00 0.00 0.00 0.00 0.00 0.00 0.00 0.00 0.00 0.00 0.00 0.00 0.00 0.00 0.00 0.00 0.00 0.00 0.00 0.00 0.01 0.02 0.05 0.09 0.11
0.00 0.00 0.00 0.00 0.00 0.00 0.00 0.00 0.00 0.00 0.00 0.00 0.00 0.00 0.00 0.00 0.00 0.00 0.00 0.00 0.00 0.00 0.00 0.00 0.00 0.00 0.00 0.00 0.00 0.00 0.00 0.00 0.00 0.00 0.00 0.00 0.01 0.01 0.02 0.04 0.09 0.15 0.17
0.00 0.00 0.00 0.00 0.00 0.00 0.00 0.00 0.00 0.00 0.00 0.00 0.00 0.00 0.00 0.00 0.00 0.00 0.00 0.00 0.00 0.00 0.00 0.00 0.00 0.00 0.00 0.00 0.00 0.00 0.00 0.00 0.00 0.00 0.01 0.01 0.03 0.02 0.04 0.09 0.14 0.20 0.22
0.00 0.00 0.00 0.00 0.00 0.00 0.00 0.00 0.00 0.00 0.00 0.00 0.00 0.00 0.00 0.00 0.00 0.00 0.00 0.00 0.00 0.00 0.00 0.00 0.00 0.00 0.00 0.00 0.00 0.00 0.00 0.01 0.01 0.02 0.03 0.04 0.04 0.04 0.08 0.14 0.19 0.24 0.24
0.00 0.00 0.00 0.00 0.00 0.00 0.00 0.00 0.00 0.00 0.00 0.00 0.00 0.00 0.00 0.00 0.00 0.00 0.00 0.00 0.00 0.00 0.00 0.00 0.00 0.00 0.00 0.00 0.00 0.00 0.00 0.01 0.02 0.04 0.05 0.05 0.04 0.07 0.13 0.19 0.23 0.25 0.23
0.00 0.00 0.00 0.00 0.00 0.00 0.00 0.00 0.00 0.00 0.00 0.00 0.00 0.00 0.00 0.00 0.00 0.00 0.00 0.00 0.00 0.00 0.00 0.00 0.00 0.00 0.00 0.00 0.00 0.00 0.00 0.00 0.01 0.02 0.03 0.04 0.06 0.11 0.18 0.21 0.23 0.24 0.23
0.00 0.00 0.00 0.00 0.00 0.00 0.00 0.00 0.00 0.00 0.00 0.00 0.00 0.00 0.00 0.00 0.00 0.00 0.00 0.00 0.00 0.00 0.00 0.00 0.00 0.00 0.00 0.00 0.00 0.00 0.01 0.01 0.02 0.02 0.03 0.04 0.08 0.14 0.19 0.21 0.21 0.21 0.21
0.00 0.00 0.00 0.00 0.00 0.00 0.00 0.00 0.00 0.00 0.00 0.00 0.00 0.00 0.00 0.00 0.00 0.00 0.00 0.00 0.00 0.00 0.00 0.00 0.00 0.00 0.00 0.00 0.00 0.00 0.01 0.02 0.03 0.03 0.04 0.07 0.12 0.17 0.20 0.22 0.21 0.20 0.18
MSLP
1015.34 1015.73 1015.99 1016.11 1016.11 1016.02 1015.91 1015.81 1015.78 1015.84 1016.00 1016.23 1016.52 1016.82 1017.10 1017.33 1017.50 1017.60 1017.65 1017.67 1017.68 1017.69 1017.72 1017.76 1017.80 1017.84 1017.86 1017.86 1017.84 1017.79 1017.72 1017.63 1017.52 1017.39 1017.23 1017.03 1016.78 1016.48 1016.13 1015.73 1015.30 1014.86 1014.43
1015.71 1016.10 1016.35 1016.46 1016.45 1016.36 1016.25 1016.17 1016.18 1016.30 1016.53 1016.83 1017.18 1017.53 1017.83 1018.04 1018.16 1018.20 1018.17 1018.11 1018.05 1018.01 1017.99 1018.01 1018.04 1018.07 1018.09 1018.08 1018.06 1018.01 1017.95 1017.87 1017.78 1017.68 1017.54 1017.36 1017.11 1016.80 1016.41 1015.97 1015.49 1014.99 1014.50
1015.92 1016.34 1016.63 1016.79 1016.82 1016.77 1016.70 1016.67 1016.73 1016.91 1017.19 1017.55 1017.94 1018.31 1018.60 1018.79 1018.86 1018.82 1018.72 1018.58 1018.45 1018.34 1018.28 1018.26 1018.27 1018.29 1018.30 1018.30 1018.27 1018.23 1018.17 1018.11 1018.03 1017.94 1017.82 1017.64 1017.39 1017.07 1016.66 1016.19 1015.67 1015.13 1014.61
1015.99 1016.48 1016.86 1017.10 1017.22 1017.25 1017.25 1017.28 1017.39 1017.62 1017.94 1018.32 1018.73 1019.10 1019.37 1019.52 1019.54 1019.44 1019.26 1019.06 1018.85 1018.69 1018.58 1018.53 1018.51 1018.51 1018.52 1018.51 1018.48 1018.44 1018.38 1018.32 1018.25 1018.16 1018.03 1017.84 1017.58 1017.24 1016.82 1016.32 1015.78 1015.22 1014.68
1015.98 1016.55 1017.04 1017.40 1017.63 1017.77 1017.85 1017.94 1018.10 1018.35 1018.69 1019.07 1019.47 1019.82 1020.06 1020.18 1020.15 1020.01 1019.78 1019.51 1019.26 1019.04 1018.89 1018.80 1018.76 1018.75 1018.74 1018.72 1018.69 1018.64 1018.58 1018.50 1018.41 1018.29 1018.13 1017.92 1017.64 1017.28 1016.83 1016.32 1015.77 1015.21 1014.65
1015.91 1016.58 1017.19 1017.68 1018.03 1018.27 1018.44 1018.60 1018.78 1019.04 1019.36 1019.73 1020.10 1020.42 1020.63 1020.72 1020.66 1020.48 1020.22 1019.93 1019.63 1019.38 1019.20 1019.08 1019.01 1018.98 1018.95 1018.92 1018.87 1018.81 1018.71 1018.60 1018.47 1018.31 1018.10 1017.85 1017.53 1017.13 1016.67 1016.16 1015.61 1015.04 1014.49
1015.80 1016.57 1017.29 1017.91 1018.38 1018.72 1018.97 1019.17 1019.38 1019.62 1019.92 1020.25 1020.58 1020.86 1021.05 1021.11 1021.04 1020.85 1020.57 1020.26 1019.95 1019.68 1019.47 1019.32 1019.23 1019.17 1019.13 1019.08 1019.00 1018.90 1018.77 1018.61 1018.42 1018.19 1017.92 1017.60 1017.23 1016.81 1016.33 1015.81 1015.27 1014.71 1014.16
1015.66 1016.52 1017.35 1018.07 1018.65 1019.08 1019.39 1019.63 1019.84 1020.07 1020.34 1020.62 1020.90 1021.15 1021.30 1021.35 1021.27 1021.08 1020.81 1020.50 1020.18 1019.90 1019.67 1019.51 1019.39 1019.31 1019.24 1019.16 1019.06 1018.91 1018.73 1018.50 1018.23 1017.93 1017.58 1017.20 1016.78 1016.32 1015.83 1015.31 1014.78 1014.24 1013.70
1015.52 1016.45 1017.37 1018.18 1018.84 1019.34 1019.71 1019.97 1020.18 1020.39 1020.62 1020.86 1021.10 1021.29 1021.42 1021.45 1021.36 1021.18 1020.92 1020.62 1020.31 1020.02 1019.79 1019.61 1019.47 1019.37 1019.27 1019.16 1019.02 1018.82 1018.58 1018.29 1017.94 1017.56 1017.14 1016.69 1016.21 1015.72 1015.22 1014.70 1014.19 1013.67 1013.15
1015.40 1016.39 1017.37 1018.25 1018.97 1019.52 1019.93 1020.21 1020.43 1020.62 1020.81 1021.01 1021.19 1021.35 1021.44 1021.44 1021.35 1021.16 1020.91 1020.62 1020.31 1020.03 1019.80 1019.61 1019.46 1019.33 1019.21 1019.07 1018.89 1018.65 1018.35 1017.99 1017.57 1017.11 1016.62 1016.11 1015.60 1015.08 1014.56 1014.06 1013.55 1013.05 1012.55
1015.37 1016.39 1017.41 1018.31 1019.07 1019.66 1020.09 1020.40 1020.62 1020.80 1020.96 1021.11 1021.24 1021.34 1021.39 1021.36 1021.24 1021.05 1020.79 1020.50 1020.21 1019.93 1019.70 1019.51 1019.35 1019.21 1019.07 1018.90 1018.69 1018.41 1018.06 1017.65 1017.18 1016.66 1016.11 1015.55 1014.99 1014.45 1013.93 1013.42 1012.92 1012.43 1011.93
1015.47 1016.51 1017.52 1018.43 1019.20 1019.80 1020.25 1020.57 1020.79 1020.96 1021.09 1021.19 1021.27 1021.31 1021.30 1021.21 1021.06 1020.84 1020.58 1020.29 1020.01 1019.74 1019.52 1019.33 1019.18 1019.03 1018.88 1018.70 1018.46 1018.15 1017.77 1017.31 1016.80 1016.23 1015.64 1015.04 1014.45 1013.88 1013.34 1012.82 1012.31 1011.81 1011.31
1015.75 1016.77 1017.75 1018.63 1019.38 1019.98 1020.42 1020.75 1020.97 1021.11 1021.21 1021.26 1021.28 1021.25 1021.16 1021.02 1020.82 1020.57 1020.29 1020.01 1019.73 1019.49 1019.28 1019.11 1018.97 1018.83 1018.68 1018.49 1018.23 1017.90 1017.50 1017.01 1016.46 1015.86 1015.23 1014.60 1013.97 1013.37 1012.79 1012.24 1011.70 1011.18 1010.66
1016.22 1017.19 1018.11 1018.93 1019.63 1020.19 1020.62 1020.92 1021.13 1021.25 1021.30 1021.30 1021.24 1021.13 1020.97 1020.76 1020.51 1020.23 1019.94 1019.66 1019.41 1019.20 1019.02 1018.88 1018.76 1018.64 1018.49 1018.29 1018.02 1017.68 1017.25 1016.74 1016.16 1015.54 1014.88 1014.21 1013.54 1012.90 1012.27 1011.66 1011.08 1010.51 1009.96
1016.86 1017.74 1018.57 1019.30 1019.91 1020.42 1020.80 1021.08 1021.25 1021.33 1021.34 1021.27 1021.13 1020.94 1020.70 1020.43 1020.13 1019.83 1019.55 1019.29 1019.08 1018.91 1018.78 1018.67 1018.58 1018.47 1018.33 1018.12 1017.84 1017.48 1017.03 1016.49 1015.89 1015.23 1014.54 1013.83 1013.12 1012.42 1011.73 1011.06 1010.41 1009.78 1009.18
1017.58 1018.37 1019.07 1019.69 1020.21 1020.63 1020.95 1021.17 1021.29 1021.32 1021.27 1021.13 1020.92 1020.66 1020.35 1020.03 1019.70 1019.40 1019.14 1018.92 1018.76 1018.65 1018.57 1018.51 1018.45 1018.35 1018.21 1017.99 1017.69 1017.29 1016.81 1016.24 1015.61 1014.91 1014.18 1013.43 1012.67 1011.90 1011.14 1010.40 1009.68 1008.99 1008.34
1018.32 1018.98 1019.56 1020.05 1020.46 1020.78 1021.02 1021.18 1021.24 1021.20 1021.08 1020.88 1020.61 1020.28 1019.93 1019.58 1019.25 1018.97 1018.75 1018.59 1018.50 1018.45 1018.44 1018.42 1018.38 1018.29 1018.13 1017.88 1017.54 1017.10 1016.57 1015.96 1015.28 1014.55 1013.77 1012.97 1012.16 1011.33 1010.51 1009.71 1008.93 1008.19 1007.52
1018.96 1019.51 1019.96 1020.33 1020.63 1020.85 1021.01 1021.09 1021.08 1020.98 1020.80 1020.54 1020.22 1019.86 1019.49 1019.14 1018.83 1018.60 1018.44 1018.36 1018.34 1018.37 1018.40 1018.42 1018.39 1018.29 1018.10 1017.80 1017.40 1016.90 1016.31 1015.64 1014.91 1014.13 1013.31 1012.46 1011.60 1010.73 1009.87 1009.02 1008.22 1007.47 1006.80
1019.46 1019.90 1020.25 1020.51 1020.70 1020.84 1020.91 1020.92 1020.85 1020.70 1020.47 1020.17 1019.83 1019.46 1019.10 1018.78 1018.53 1018.36 1018.28 1018.28 1018.33 1018.42 1018.49 1018.53 1018.49 1018.35 1018.11 1017.74 1017.27 1016.69 1016.03 1015.29 1014.50 1013.67 1012.80 1011.92 1011.03 1010.14 1009.27 1008.42 1007.63 1006.91 1006.28
1019.79 1020.15 1020.41 1020.59 1020.71 1020.77 1020.78 1020.73 1020.62 1020.42 1020.17 1019.85 1019.51 1019.16 1018.83 1018.57 1018.39 1018.30 1018.30 1018.37 1018.49 1018.62 1018.71 1018.74 1018.66 1018.48 1018.16 1017.71 1017.15 1016.49 1015.75 1014.94 1014.09 1013.21 1012.31 1011.41 1010.51 1009.63 1008.77 1007.97 1007.23 1006.58 1006.06
1019.96 1020.27 1020.47 1020.60 1020.67 1020.68 1020.65 1020.57 1020.42 1020.21 1019.95 1019.65 1019.33 1019.03 1018.76 1018.57 1018.47 1018.46 1018.53 1018.66 1018.82 1018.96 1019.05 1019.04 1018.91 1018.65 1018.24 1017.71 1017.06 1016.32 1015.50 1014.63 1013.73 1012.81 1011.89 1010.98 1010.09 1009.24 1008.44 1007.71 1007.07 1006.54 1006.14
1020.04 1020.31 1020.48 1020.58 1020.62 1020.62 1020.56 1020.46 1020.31 1020.11 1019.87 1019.61 1019.34 1019.10 1018.92 1018.81 1018.78 1018.84 1018.97 1019.13 1019.29 1019.42 1019.46 1019.39 1019.19 1018.84 1018.35 1017.73 1017.00 1016.18 1015.30 1014.38 1013.44 1012.50 1011.58 1010.68 1009.82 1009.02 1008.30 1007.67 1007.15 1006.76 1006.52
1020.08 1020.33 1020.49 1020.57 1020.61 1020.60 1020.54 1020.45 1020.31 1020.14 1019.95 1019.74 1019.55 1019.39 1019.29 1019.26 1019.30 1019.41 1019.56 1019.73 1019.86 1019.94 1019.92 1019.77 1019.47 1019.03 1018.46 1017.76 1016.97 1016.10 1015.18 1014.23 1013.27 1012.33 1011.41 1010.54 1009.72 1008.98 1008.35 1007.83 1007.45 1007.21 1007.12
1020.14 1020.37 1020.52 1020.60 1020.64 1020.63 1020.59 1020.52 1020.41 1020.29 1020.16 1020.03 1019.92 1019.85 1019.83 1019.87 1019.96 1020.10 1020.25 1020.38 1020.46 1020.46 1020.35 1020.10 1019.71 1019.18 1018.54 1017.78 1016.94 1016.05 1015.12 1014.17 1013.23 1012.30 1011.41 1010.57 1009.81 1009.14 1008.59 1008.17 1007.91 1007.80 1007.85
1020.26 1020.46 1020.60 1020.67 1020.71 1020.71 1020.69 1020.65 1020.59 1020.52 1020.46 1020.42 1020.40 1020.42 1020.47 1020.57 1020.70 1020.83 1020.95 1021.02 1021.02 1020.92 1020.70 1020.35 1019.87 1019.27 1018.56 1017.78 1016.93 1016.05 1015.14 1014.22 1013.31 1012.43 1011.58 1010.79 1010.08 1009.47 1009.00 1008.66 1008.50 1008.49 1008.65
1020.44 1020.61 1020.72 1020.78 1020.81 1020.82 1020.82 1020.81 1020.80 1020.80 1020.82 1020.86 1020.93 1021.02 1021.14 1021.28 1021.42 1021.53 1021.59 1021.58 1021.49 1021.27 1020.94 1020.49 1019.93 1019.28 1018.54 1017.76 1016.93 1016.08 1015.23 1014.38 1013.53 1012.71 1011.93 1011.19 1010.54 1009.98 1009.56 1009.28 1009.18 1009.23 1009.45
Thickness
5733 5730 5726 5723 5719 5715 5712 5709 5705 5701 5698 5694 5687 5680 5672 5666 5662 5657 5652 5649 5645 5642 5638 5634 5630 5626 5621 5616 5611 5607 5602 5597 5593 5589 5590 5594 5593 5591 5587 5584 5582 5581 5580
5728 5723 5719 5715 5710 5706 5703 5699 5695 5691 5688 5683 5677 5669 5662 5655 5649 5644 5640 5637 5633 5630 5626 5621 5616 5611 5605 5600 5595 5590 5583 5577 5570 5562 5558 5563 5572 5571 5567 5560 5557 5557 5556
5725 5719 5713 5708 5704 5699 5695 5690 5685 5681 5676 5672 5665 5658 5651 5645 5639 5634 5628 5624 5620 5616 5611 5605 5600 5594 5588 5581 5576 5569 5563 5556 5549 5540 5532 5529 5534 5539 5543 5537 5533 5532 5532
5718 5712 5706 5700 5695 5691 5686 5681 5675 5669 5663 5658 5652 5645 5637 5630 5624 5619 5614 5610 5606 5600 5595 5589 5583 5577 5570 5563 5557 5551 5544 5537 5530 5523 5516 5510 5507 5505 5512 5512 5509 5508 5509
5708 5703 5698 5693 5688 5683 5677 5669 5662 5655 5649 5644 5638 5631 5624 5617 5611 5606 5601 5595 5590 5584 5578 5573 5566 5560 5553 5547 5541 5535 5528 5522 5515 5508 5502 5497 5492 5488 5487 5491 5491 5491 5493
5698 5693 5689 5684 5679 5673 5665 5657 5649 5642 5636 5631 5625 5618 5610 5603 5597 5591 5585 5579 5574 5569 5564 5558 5551 5545 5539 5534 5528 5522 5516 5511 5504 5499 5493 5487 5483 5480 5478 5479 5481 5482 5485
5690 5685 5679 5673 5667 5661 5653 5645 5638 5630 5624 5618 5612 5605 5598 5591 5584 5578 5571 5565 5560 5554 5549 5543 5537 5532 5527 5522 5517 5511 5506 5500 5495 5490 5485 5481 5477 5474 5472 5471 5473 5475 5479
5684 5678 5671 5665 5658 5650 5642 5634 5626 5619 5613 5607 5599 5593 5587 5580 5573 5566 5560 5553 5547 5541 5536 5531 5525 5521 5517 5512 5506 5500 5494 5489 5484 5480 5476 5474 5472 5468 5466 5464 5464 5469 5474
5676 5671 5664 5656 5649 5640 5631 5623 5616 5609 5602 5596 5589 5582 5576 5568 5561 5554 5547 5541 5535 5530 5524 5520 5515 5511 5506 5501 5494 5488 5482 5477 5472 5469 5467 5465 5464 5463 5461 5459 5458 5459 5466
5668 5662 5655 5646 5638 5629 5620 5612 5606 5599 5592 5585 5579 5572 5564 5557 5550 5542 5535 5529 5523 5518 5514 5510 5506 5501 5495 5489 5483 5476 5471 5466 5461 5459 5457 5456 5455 5455 5455 5455 5455 5453 5456
5659 5652 5644 5636 5627 5617 5608 5601 5595 5589 5581 5574 5567 5559 5552 5545 5538 5531 5525 5519 5514 5509 5506 5502 5497 5492 5485 5479 5472 5465 5460 5456 5452 5449 5448 5447 5448 5448 5449 5450 5451 5452 5452
5652 5644 5634 5624 5614 5604 5596 5590 5584 5578 5570 5563 5556 5548 5541 5534 5527 5521 5515 5510 5506 5502 5499 5494 5489 5483 5476 5469 5462 5456 5451 5446 5443 5440 5439 5439 5441 5442 5443 5445 5447 5448 5449
5641 5632 5622 5612 5603 5594 5587 5580 5574 5567 5560 5553 5545 5537 5530 5523 5517 5512 5507 5503 5499 5495 5491 5486 5480 5474 5466 5459 5452 5445 5440 5437 5434 5432 5431 5432 5433 5435 5438 5440 5443 5445 5447
5627 5618 5607 5598 5591 5584 5577 5571 5564 5558 5550 5542 5535 5527 5520 5514 5509 5504 5500 5497 5493 5489 5483 5478 5472 5465 5457 5448 5441 5435 5431 5427 5426 5425 5424 5425 5426 5429 5433 5437 5439 5442 5445
5611 5603 5591 5583 5577 5571 5566 5561 5554 5547 5539 5532 5525 5517 5512 5506 5501 5497 5494 5490 5486 5482 5475 5469 5462 5454 5446 5438 5431 5425 5422 5419 5419 5418 5418 5419 5422 5426 5429 5433 5437 5440 5444
5597 5588 5580 5573 5567 5562 5556 5550 5543 5535 5528 5521 5515 5509 5504 5499 5495 5491 5487 5483 5478 5473 5466 5459 5452 5444 5436 5427 5421 5417 5413 5411 5411 5411 5412 5413 5417 5421 5424 5429 5435 5440 5446
5584 5575 5568 5561 5555 5550 5544 5537 5531 5524 5519 5513 5508 5503 5498 5493 5490 5486 5482 5476 5470 5463 5456 5449 5441 5432 5423 5416 5410 5407 5404 5402 5403 5404 5405 5409 5413 5416 5420 5427 5435 5443 5450
5574 5564 5556 5550 5545 5539 5533 5526 5521 5516 5511 5505 5501 5497 5493 5489 5485 5480 5475 5468 5461 5453 5445 5437 5429 5420 5411 5405 5401 5398 5395 5395 5397 5399 5400 5404 5408 5413 5417 5425 5435 5446 5455
5560 5552 5546 5541 5535 5529 5523 5517 5512 5507 5503 5500 5496 5493 5490 5486 5481 5475 5469 5461 5452 5443 5433 5425 5416 5407 5400 5395 5391 5390 5387 5389 5392 5395 5399 5401 5405 5410 5415 5424 5436 5447 5456
5549 5543 5538 5533 5526 5520 5515 5509 5504 5500 5497 5495 5493 5491 5488 5483 5477 5471 5463 5453 5442 5431 5421 5412 5404 5396 5390 5386 5383 5382 5381 5383 5386 5391 5396 5399 5403 5408 5416 5425 5435 5446 5454
5540 5536 5530 5523 5517 5513 5507 5502 5497 5494 5493 5493 5491 5488 5484 5479 5473 5464 5454 5442 5430 5418 5408 5399 5392 5386 5381 5379 5377 5376 5376 5377 5381 5387 5392 5396 5401 5408 5417 5426 5436 5445 5450
5533 5528 5520 5514 5510 5506 5501 5496 5492 5491 5491 5489 5487 5482 5478 5472 5464 5452 5440 5428 5417 5406 5396 5388 5381 5377 5374 5373 5372 5372 5373 5374 5378 5384 5388 5394 5401 5409 5419 5428 5437 5444 5448
5524 5518 5512 5508 5504 5500 5495 5490 5489 5489 5488 5484 5480 5474 5467 5458 5448 5437 5425 5414 5404 5395 5386 5379 5373 5371 5370 5369 5368 5369 5371 5374 5378 5382 5388 5395 5402 5411 5421 5429 5437 5442 5445
5516 5511 5506 5502 5498 5494 5491 5488 5488 5487 5483 5477 5471 5463 5453 5443 5434 5425 5415 5405 5395 5386 5379 5373 5369 5367 5367 5365 5365 5366 5368 5372 5377 5382 5389 5396 5404 5412 5420 5428 5434 5438 5440
5509 5505 5501 5497 5493 5490 5488 5487 5485 5482 5475 5469 5461 5452 5442 5431 5422 5413 5404 5397 5389 5382 5375 5369 5365 5364 5364 5361 5360 5361 5365 5369 5374 5381 5389 5396 5403 5411 5418 5425 5430 5433 5435
5505 5501 5496 5491 5488 5487 5486 5484 5481 5476 5468 5459 5451 5442 5432 5423 5414 5405 5398 5392 5385 5379 5372 5367 5363 5361 5359 5359 5360 5362 5366 5370 5375 5382 5388 5393 5400 5407 5414 5420 5425 5429 5431